< < Back
Terminal Aerodrome Forecast


Current Version              Previous Versions:   1  2  3  4  5  6  7  8  9  

Terminal Aerodrome Forecast

894
FTUS42 KJAX 292122 AAB
TAFSSI
TAF AMD
KSSI 292122Z 2921/3018 07014G20KT P6SM VCSH BKN050 OVC080
     FM292200 07014G20KT 5SM -SHRA BKN030 OVC050
     FM292330 07010G18KT P6SM VCSH SCT030 BKN080
     FM300100 07009KT P6SM VCSH SCT030 BKN070
     FM300900 06008KT P6SM VCSH BKN020 BKN060
     FM301300 08011G16KT P6SM VCSH BKN030 BKN050
     FM301700 09014G21KT P6SM VCSH SCT035 BKN060 BKN250=



Latest METAR

N/A

USA.gov is the U.S. government's official web portal to all federal, state and local government web resources and services.